Location: Champignolles
(47.0543°N, 4.5663°E)
Time: 07:59:56
(UTC+00:00)

Cosmos 923 Rocket - Pass Details

Date: 16 April 2021
Orbit: 759 x 785 km, 74.0° (Epoch: 13 May)

Event Time Altitude Azimuth Distance (km) Brightness Sun altitude
Rises 00:40:22 0° 348° (NNW) 3,230 8.1 -31.3°
Reaches altitude 10° 00:43:48 10° 11° (NNE) 2,301 7.3 -31.1°
Maximum altitude 00:46:47 15° 47° (NE) 1,962 6.7 -31.0°
Drops below altitude 10° 00:49:47 10° 82° (E) 2,299 6.7 -30.8°
Sets 00:53:12 0° 105° (ESE) 3,225 7.3 -30.6°
